Wind_Speed
17 17 15 14 13 12 12 11 11 11 11 11 12 13 14 15 15 17 18 19 21 23 24 25 26 26 27 27 26 25 25 25 25 24 24 23 23 23 23 24 25 26 29 31
19 17 16 14 13 12 11 11 10 10 10 10 11 12 13 13 14 15 17 19 21 23 24 25 26 26 27 27 26 26 25 25 25 24 23 23 22 22 22 22 22 24 26 28
19 18 16 14 13 12 11 10 9 9 9 9 10 10 11 12 13 14 17 19 21 22 24 25 26 26 27 27 26 26 26 26 25 25 24 23 21 21 20 19 20 21 23 25
20 18 16 14 13 12 10 9 8 8 8 9 9 9 9 10 12 14 16 18 21 22 24 25 25 26 27 27 27 26 26 26 26 25 24 23 22 20 19 18 18 18 19 21
20 18 16 14 13 11 9 8 7 7 7 7 7 7 8 10 12 14 16 18 20 22 24 25 25 26 27 27 27 27 27 27 27 26 25 24 22 21 19 18 17 16 16 18
20 18 16 14 12 10 9 8 6 5 6 5 5 6 7 9 11 13 16 18 20 22 23 24 25 26 27 28 27 27 28 28 28 28 27 25 24 23 21 18 16 14 13 14
19 18 16 14 12 10 8 6 5 4 4 4 4 5 7 9 11 13 15 18 20 22 23 24 25 26 27 28 28 28 29 29 29 28 28 27 26 24 22 19 16 13 10 10
18 17 15 13 11 9 8 6 4 3 2 2 3 5 6 8 10 12 15 17 19 21 23 24 25 26 27 28 28 28 29 30 29 29 28 28 27 25 23 21 18 13 9 8
18 17 15 13 11 10 8 6 4 3 2 1 3 5 6 8 10 12 14 16 18 21 23 24 25 26 27 28 28 29 29 30 30 30 29 29 27 26 24 22 20 15 11 8
18 16 14 12 11 10 8 6 5 3 2 1 2 4 6 8 10 12 14 16 18 20 22 23 25 26 27 28 28 29 29 30 30 31 30 30 28 26 25 23 21 18 14 10
18 16 14 12 11 10 8 7 5 4 2 1 2 4 5 7 9 11 13 15 17 19 21 23 24 25 26 27 28 29 29 30 30 31 31 31 30 28 26 25 22 20 17 13
17 15 13 12 11 10 9 7 6 5 3 2 2 3 5 7 9 11 13 15 17 18 20 22 23 24 25 26 27 28 29 30 30 31 31 31 31 29 27 26 24 22 19 16
17 15 13 12 11 10 9 8 6 5 4 3 2 3 4 6 8 10 12 14 16 18 20 21 23 23 24 26 27 28 29 29 30 31 31 31 31 30 28 27 26 23 21 19
16 15 14 13 12 11 9 8 7 6 4 3 2 3 4 6 8 10 12 13 15 17 19 20 21 23 24 25 26 27 28 29 30 30 30 31 31 30 29 28 27 25 23 20
16 14 14 13 12 11 10 9 8 7 5 4 3 3 4 6 8 9 11 13 14 16 18 19 20 21 23 24 25 26 27 28 29 30 30 31 31 30 29 28 27 26 24 22
15 14 13 13 12 11 10 9 8 7 6 5 4 3 4 5 7 9 10 12 14 15 17 18 19 20 22 23 25 26 26 27 28 29 30 30 30 30 30 29 27 26 25 24
14 14 14 13 12 11 11 10 9 8 7 6 5 5 4 5 7 9 10 11 13 14 16 17 19 20 21 22 24 25 26 26 27 28 29 30 30 29 30 30 29 28 26 25
14 14 14 14 13 12 11 10 10 9 8 7 6 6 6 6 7 9 10 11 12 14 15 17 18 19 20 21 23 24 25 25 26 27 28 29 29 29 29 29 29 29 28 26
14 14 14 14 13 12 11 10 10 9 8 8 7 7 7 8 8 9 10 12 13 14 15 16 17 18 20 21 22 23 24 25 25 26 26 27 27 28 28 28 28 28 28 27
14 14 14 14 13 12 11 10 10 9 9 8 8 8 9 9 10 10 11 12 13 14 15 16 17 18 19 20 21 22 23 24 24 25 25 25 26 26 26 27 27 27 27 26
14 14 14 14 13 12 11 10 10 11 10 10 10 10 10 11 11 12 12 13 14 15 16 17 17 18 19 20 21 22 22 23 23 24 24 24 24 25 25 25 26 26 26 25
14 14 14 14 13 12 12 12 12 12 12 12 12 12 13 13 13 13 14 15 15 16 17 17 18 19 20 20 21 21 22 22 22 23 23 23 23 23 23 23 24 24 24 23
15 15 15 15 14 14 13 13 13 14 14 14 14 14 14 15 15 16 16 17 17 17 18 18 19 20 20 21 21 21 22 22 22 22 22 22 22 22 22 22 22 22 22 22
16 16 16 15 15 15 15 15 15 15 16 16 16 16 16 17 17 18 18 18 19 19 19 19 20 21 21 22 22 22 22 22 22 22 22 22 22 22 21 21 21 21 21 20
17 17 17 17 16 16 17 17 17 18 18 18 18 19 19 19 20 20 20 20 20 21 21 21 22 22 23 23 23 23 23 23 22 22 22 22 22 21 21 21 20 20 20 19
19 19 19 19 19 19 19 19 19 20 20 20 21 21 21 21 22 22 22 22 22 22 23 23 24 24 24 24 24 24 23 23 23 23 22 22 22 21 21 21 20 19 19 18
Wind_Direction
240 243 248 253 261 269 280 290 298 305 314 319 325 330 335 340 344 347 349 349 349 349 349 349 349 348 347 346 345 343 339 336 332 328 322 315 308 301 295 287 276 267 260 255
235 239 244 250 258 267 276 286 295 304 312 320 326 333 340 345 349 352 353 353 353 353 353 353 352 351 351 350 350 348 346 343 340 336 332 325 316 309 301 292 281 271 262 255
234 237 241 246 253 262 272 283 292 302 312 321 328 337 346 352 355 357 357 358 358 358 358 357 357 356 356 355 354 352 351 349 347 344 339 333 327 319 310 301 290 278 265 256
230 234 238 243 250 259 269 280 289 301 313 323 331 342 352 357 360 2 2 1 1 1 1 0 0 0 0 359 358 357 355 354 352 350 347 343 338 331 322 312 303 288 271 259
228 231 236 242 248 255 265 275 286 300 313 324 336 348 357 359 3 4 4 3 3 3 2 3 3 3 3 2 1 0 359 358 357 356 353 349 345 340 332 323 314 301 279 263
224 228 233 239 244 251 259 271 282 298 314 330 340 353 358 0 3 5 6 6 6 5 5 5 5 5 4 4 4 3 3 2 1 359 357 354 352 348 344 337 327 314 293 270
222 226 231 234 241 245 253 263 276 298 318 327 339 353 358 1 3 4 6 7 8 8 8 7 6 7 7 6 6 6 6 5 4 3 2 360 358 355 353 350 341 329 309 283
221 225 226 231 237 240 242 247 259 276 296 316 338 353 357 0 2 4 6 7 8 8 9 9 9 9 9 8 8 8 8 7 7 6 5 5 4 2 1 358 354 346 330 301
216 221 223 228 231 233 232 238 243 255 259 309 341 353 357 1 3 4 5 6 8 9 9 9 9 10 10 10 9 9 9 8 9 9 8 8 8 8 7 5 2 360 350 328
211 217 220 224 226 228 228 227 226 228 229 268 332 348 354 1 3 3 4 6 7 6 7 7 8 9 10 10 11 11 10 11 12 13 12 12 12 12 11 10 8 6 360 348
209 215 219 222 223 223 221 220 219 216 218 241 303 338 352 359 1 2 3 4 5 6 6 7 7 8 10 11 12 13 13 13 15 15 16 16 15 14 14 14 13 11 7 1
207 212 218 221 221 219 218 216 214 213 215 236 291 334 348 356 358 0 2 3 4 5 5 6 7 8 10 12 13 14 14 15 15 16 16 17 17 17 16 15 14 13 12 9
207 211 215 220 220 218 217 213 211 209 217 234 279 324 343 352 355 358 360 2 3 4 5 6 8 9 11 12 13 14 14 15 16 16 16 16 17 18 17 16 15 15 14 11
209 211 214 218 219 216 215 213 211 212 218 232 268 310 335 346 353 356 359 0 2 4 5 7 9 10 11 12 12 13 14 15 16 17 17 17 17 17 17 17 16 16 15 14
210 212 215 218 218 216 214 213 213 215 219 231 256 296 326 342 350 354 357 359 0 2 4 6 7 8 9 10 11 12 13 14 15 16 17 17 18 18 18 17 17 18 18 18
210 212 216 217 214 214 215 216 217 220 225 236 253 280 310 330 341 347 352 355 357 359 1 3 4 4 6 7 9 10 11 12 13 15 16 16 17 19 19 19 20 19 19 19
212 214 215 215 214 215 218 220 223 228 232 241 253 270 295 317 329 338 345 349 352 355 358 360 1 2 2 4 5 7 9 10 12 13 14 16 17 18 19 20 21 21 20 20
211 212 212 212 215 220 221 224 228 233 237 244 254 269 288 306 318 327 335 340 345 348 351 354 356 358 359 360 1 3 5 7 9 10 12 14 16 17 18 19 21 21 22 21
212 212 211 212 217 222 224 227 232 238 243 249 259 270 284 297 307 317 325 332 337 341 344 346 349 351 353 355 357 359 1 3 4 7 9 11 13 16 17 18 19 20 21 23
214 213 213 215 220 224 226 230 236 242 248 254 263 272 281 292 301 309 316 322 328 333 336 339 342 344 347 350 351 353 356 359 1 3 5 8 10 12 14 16 18 19 20 22
215 215 216 219 224 229 231 235 240 247 254 258 265 273 280 287 295 301 307 313 319 324 328 331 334 337 340 343 345 347 350 353 356 358 0 2 5 8 10 12 14 16 18 20
219 220 222 226 230 235 237 242 246 253 257 262 268 274 279 285 290 296 301 306 312 317 321 325 328 331 334 336 338 341 343 346 349 352 355 357 360 2 5 7 10 12 14 16
224 226 229 234 239 243 244 247 250 255 260 264 269 275 280 284 289 294 298 302 307 311 315 319 322 325 328 330 332 334 336 338 341 344 347 350 353 356 359 1 3 6 8 11
230 232 236 240 243 247 249 251 254 259 262 267 271 275 279 283 287 292 296 299 302 306 309 313 316 319 321 323 325 327 329 331 334 336 339 341 345 348 351 355 357 360 2 4
237 239 242 245 247 250 253 256 259 262 265 268 272 275 278 282 286 289 293 296 300 303 306 308 311 313 315 317 319 321 323 325 326 328 330 333 335 338 341 344 348 351 354 357
242 244 246 249 252 255 257 260 262 265 268 271 274 276 279 282 285 287 291 294 297 299 302 304 306 308 310 312 313 316 317 319 320 321 322 324 326 328 330 333 336 340 343 346
Height
5909 5911 5912 5913 5914 5914 5913 5913 5911 5910 5908 5906 5904 5901 5898 5895 5891 5888 5884 5880 5875 5871 5866 5860 5854 5849 5843 5837 5831 5826 5820 5815 5809 5804 5800 5795 5791 5787 5784 5782 5781 5780 5781 5782
5906 5907 5909 5910 5910 5911 5911 5910 5909 5908 5906 5904 5902 5899 5896 5893 5890 5887 5883 5879 5874 5870 5864 5859 5853 5847 5841 5835 5829 5823 5818 5812 5806 5800 5795 5790 5786 5782 5779 5776 5774 5772 5772 5773
5901 5904 5905 5907 5907 5908 5908 5907 5907 5905 5904 5902 5900 5898 5895 5892 5889 5886 5882 5878 5874 5869 5863 5858 5852 5846 5840 5833 5827 5822 5816 5809 5803 5797 5792 5786 5782 5777 5773 5770 5768 5766 5765 5766
5897 5900 5902 5904 5904 5905 5905 5905 5904 5903 5902 5901 5899 5897 5894 5891 5888 5885 5881 5877 5873 5868 5863 5857 5851 5845 5839 5833 5826 5820 5814 5808 5802 5795 5789 5783 5778 5773 5769 5765 5762 5760 5758 5758
5894 5897 5899 5901 5902 5902 5902 5902 5902 5901 5900 5899 5897 5896 5894 5891 5888 5884 5881 5877 5872 5867 5862 5856 5850 5844 5838 5832 5826 5819 5813 5807 5800 5794 5787 5781 5775 5770 5765 5761 5757 5754 5753 5752
5891 5894 5896 5898 5899 5900 5900 5900 5900 5899 5899 5898 5896 5895 5893 5890 5887 5884 5880 5876 5871 5867 5861 5856 5850 5844 5838 5832 5825 5819 5812 5806 5799 5793 5786 5780 5774 5768 5762 5757 5753 5750 5748 5747
5888 5891 5893 5895 5896 5897 5898 5899 5899 5898 5898 5897 5895 5893 5892 5889 5886 5883 5880 5876 5871 5866 5861 5856 5850 5844 5838 5832 5825 5819 5812 5806 5799 5792 5785 5779 5772 5766 5761 5755 5751 5747 5745 5743
5886 5889 5891 5892 5894 5895 5896 5897 5898 5897 5896 5895 5894 5892 5891 5888 5885 5882 5879 5875 5871 5866 5861 5856 5850 5844 5838 5832 5826 5819 5813 5806 5799 5792 5785 5779 5772 5766 5760 5755 5750 5746 5743 5741
5883 5886 5888 5890 5891 5893 5894 5894 5895 5895 5894 5894 5893 5891 5890 5887 5884 5881 5878 5875 5871 5866 5861 5856 5851 5845 5839 5833 5826 5820 5813 5806 5799 5792 5786 5779 5772 5766 5760 5755 5750 5746 5742 5740
5880 5883 5885 5887 5889 5890 5892 5892 5893 5893 5893 5892 5892 5890 5889 5886 5884 5881 5878 5874 5870 5866 5861 5856 5851 5846 5840 5833 5827 5821 5814 5807 5800 5794 5787 5780 5773 5767 5761 5755 5750 5746 5742 5739
5878 5881 5884 5885 5887 5888 5890 5890 5890 5891 5891 5891 5890 5891 5888 5885 5883 5880 5877 5874 5870 5866 5861 5856 5851 5846 5840 5834 5828 5822 5815 5809 5802 5795 5788 5781 5775 5768 5762 5757 5751 5746 5742 5739
5876 5879 5881 5883 5885 5886 5887 5888 5889 5890 5890 5889 5889 5891 5886 5884 5882 5879 5876 5873 5869 5865 5861 5856 5852 5846 5841 5835 5829 5823 5817 5810 5804 5797 5790 5783 5777 5770 5764 5758 5753 5748 5743 5739
5874 5877 5880 5882 5884 5885 5885 5886 5886 5887 5888 5887 5887 5889 5885 5883 5881 5878 5876 5872 5869 5865 5861 5856 5852 5847 5842 5836 5831 5825 5819 5812 5806 5799 5792 5786 5779 5773 5766 5760 5754 5749 5744 5740
5872 5875 5878 5880 5880 5881 5883 5884 5885 5885 5886 5886 5886 5885 5884 5882 5880 5877 5875 5872 5868 5865 5861 5857 5852 5847 5843 5837 5832 5826 5820 5814 5808 5801 5795 5788 5782 5775 5769 5762 5757 5751 5746 5741
5870 5873 5874 5876 5878 5879 5881 5882 5883 5883 5884 5884 5884 5883 5882 5880 5878 5876 5874 5871 5868 5864 5861 5857 5852 5848 5843 5838 5833 5828 5822 5816 5810 5804 5797 5791 5784 5778 5771 5765 5759 5753 5747 5742
5868 5870 5872 5874 5875 5877 5878 5879 5880 5881 5881 5882 5882 5881 5880 5879 5877 5875 5873 5870 5867 5864 5860 5856 5852 5848 5844 5839 5834 5829 5823 5818 5812 5806 5799 5793 5787 5780 5774 5767 5761 5756 5750 5745
5866 5868 5870 5872 5873 5875 5877 5878 5878 5879 5879 5880 5880 5880 5878 5877 5875 5874 5871 5869 5866 5863 5860 5856 5852 5848 5844 5839 5834 5829 5824 5819 5813 5808 5802 5795 5789 5783 5777 5770 5764 5759 5753 5747
5864 5866 5868 5870 5872 5873 5876 5875 5876 5876 5877 5877 5877 5877 5876 5875 5874 5872 5870 5867 5865 5862 5859 5855 5851 5848 5843 5839 5835 5830 5825 5820 5815 5809 5804 5798 5792 5786 5780 5774 5768 5762 5757 5751
5862 5864 5866 5868 5869 5870 5872 5872 5873 5874 5874 5875 5874 5874 5873 5872 5871 5870 5868 5865 5863 5860 5857 5854 5850 5847 5843 5839 5834 5830 5825 5821 5816 5810 5805 5800 5794 5788 5783 5777 5771 5766 5760 5755
5860 5862 5864 5865 5866 5868 5870 5870 5870 5872 5872 5872 5871 5871 5870 5870 5869 5868 5865 5863 5861 5858 5855 5852 5849 5845 5842 5838 5834 5830 5825 5821 5816 5811 5806 5801 5796 5791 5785 5780 5775 5769 5764 5759
5857 5859 5861 5862 5863 5865 5867 5867 5868 5870 5870 5869 5868 5868 5867 5866 5866 5865 5862 5860 5858 5856 5853 5850 5847 5844 5840 5837 5833 5829 5825 5821 5816 5812 5807 5802 5797 5793 5788 5783 5778 5772 5767 5762
5855 5856 5858 5859 5861 5864 5863 5863 5865 5865 5865 5865 5864 5864 5864 5863 5862 5860 5859 5857 5855 5852 5850 5847 5844 5841 5838 5835 5831 5827 5823 5820 5815 5811 5807 5803 5798 5794 5789 5784 5780 5775 5770 5765
5851 5853 5855 5857 5859 5859 5859 5859 5860 5860 5860 5860 5860 5860 5859 5859 5857 5856 5855 5853 5851 5849 5846 5844 5841 5838 5835 5832 5829 5825 5822 5818 5814 5810 5806 5802 5798 5794 5789 5785 5781 5776 5772 5768
5848 5849 5850 5852 5853 5854 5854 5855 5855 5856 5856 5856 5856 5855 5855 5854 5853 5851 5850 5848 5846 5844 5842 5840 5837 5835 5832 5829 5825 5822 5819 5816 5812 5808 5805 5801 5797 5793 5789 5785 5781 5777 5773 5769
5843 5844 5845 5847 5848 5849 5849 5850 5850 5850 5850 5850 5850 5850 5849 5848 5847 5846 5845 5843 5842 5840 5837 5835 5833 5830 5827 5824 5821 5819 5816 5812 5809 5805 5802 5799 5795 5792 5788 5785 5781 5777 5774 5770
5838 5839 5841 5842 5843 5843 5844 5844 5844 5844 5844 5844 5844 5844 5843 5842 5841 5840 5839 5837 5836 5834 5832 5830 5827 5825 5822 5819 5817 5814 5811 5808 5805 5802 5798 5795 5792 5789 5786 5783 5780 5776 5773 5769